Location: Ajisawe
(8.4333°N, 4.3833°E)
Time: 14:17:38
(UTC+00:00)

Courier 1B Rocket - Pass Details

Date: 27 April 2021
Orbit: 920 x 1202 km, 28.3° (Epoch: 10 May)

Event Time Altitude Azimuth Distance (km) Brightness Sun altitude
Rises 15:29:26 0° 275° (W) 3,564 9.0 33.6°
Reaches altitude 10° 15:32:37 10° 290° (WNW) 2,605 8.7 32.8°
Maximum altitude 15:37:26 23° 341° (NNW) 1,840 7.1 31.7°
Drops below altitude 10° 15:42:17 10° 32° (NNE) 2,620 7.2 30.5°
Sets 15:45:31 0° 46° (NE) 3,590 7.7 29.7°
